sat.trackr.live / text

‹ back to catalog

STARLINK-34221

NORAD 64453 · 2025-130R

PAYLOAD ACTIVE UNKNOWN

§ Identity

Operator
Country
US
Launch date
2025-06-18
Launch site
AFETR
Launch vehicle
Mass (kg)
RCS (m²)

Purposes: comms

External: N2YO · Heavens-Above · Gunter

§ Orbital elements

Epoch: 2026-05-25T02:38:37.430016Z

Period
93.85 min
Inclination
53.1601°
Eccentricity
0.0000975
Mean motion
15.34400877 rev/d
Perigee alt
462.0 km
Apogee alt
463.4 km
Semi-major
6,840.8 km
B*
7.8034e-4
RAAN
92.8469°
Arg perigee
99.9913°
Mean anomaly
260.1200°
Rev number
5,241

§ Raw data

STARLINK-342211 64453U 25130R   26145.11015544  .00026081  00000+0  78034-3 0  99932 64453  53.1601  92.8469 0000975  99.9913 260.1200 15.34400877 52411

JSON: /api/v1/satellites/64453 · /tle

For live sub-satellite position, see the globe view (requires WebGL).

§ Visibility from observer

Set your observer location to see the next 7 days of passes ≥ 10°. The values pass through the URL so the page stays shareable.

No JS? Fill the form by hand. The geolocation button needs JavaScript.